Location: Homewood
(41.1836°S, 175.9581°E)
Time: 07:16:57
(UTC+00:00)

Spot 4 Rocket - Visible Passes

Search period start: 22 July 2024 00:00
Search period end: 01 August 2024 00:00
Orbit: 771 x 777 km, 98.8° (Epoch: 21 July)

Date Brightness Start Highest point End Pass type
(mag) Time Alt. Az. Time Alt. Az. Time Alt. Az.
22 Jul 4.4 06:40:29 10° S 06:45:39 68° WSW 06:50:45 10° NNW visible
22 Jul 6.2 16:18:25 10° ENE 16:22:24 23° ESE 16:25:32 14° SSE visible
22 Jul 4.3 17:56:16 10° N 18:01:12 46° W 18:05:57 11° SSW visible
23 Jul 4.1 06:06:26 10° SSE 06:11:34 58° E 06:16:38 10° N visible
23 Jul 6.5 07:46:43 10° SSW 07:50:13 19° WSW 07:53:41 10° WNW visible
23 Jul 6.9 15:47:01 10° ESE 15:48:46 12° ESE 15:50:33 10° SE visible
23 Jul 4.0 17:21:54 10° NNE 17:27:04 85° ESE 17:31:40 14° SSW visible
24 Jul 5.5 07:11:45 10° S 07:16:27 36° WSW 07:21:07 10° NW visible
24 Jul 5.2 16:48:17 10° NE 16:53:06 42° ESE 16:57:25 13° S visible
24 Jul 5.1 18:28:13 10° NNW 18:32:21 24° W 18:36:32 10° SW visible
25 Jul 4.2 06:37:20 10° S 06:42:32 73° WSW 06:47:39 10° NNW visible
25 Jul 6.3 16:15:28 10° ENE 16:19:19 21° ESE 16:23:10 10° SSE visible
25 Jul 4.2 17:53:03 10° N 17:58:04 50° W 18:03:07 10° SSW visible
26 Jul 4.2 06:03:20 10° SSE 06:08:26 54° E 06:13:26 10° N visible
26 Jul 6.4 07:43:27 10° SSW 07:47:07 20° WSW 07:50:45 10° WNW visible
26 Jul 7.0 15:44:29 10° ESE 15:45:42 11° ESE 15:46:56 10° SE visible
26 Jul 4.1 17:18:46 10° NNE 17:23:56 80° ESE 17:29:10 10° SSW visible
27 Jul 5.4 07:08:34 10° S 07:13:21 38° WSW 07:18:05 10° NW visible
27 Jul 5.3 16:45:13 10° NE 16:49:59 39° ESE 16:54:47 10° S visible
27 Jul 5.0 18:24:55 10° NNW 18:29:11 26° W 18:33:29 10° SW visible
28 Jul 4.2 06:34:11 10° S 06:39:24 79° WSW 06:44:32 10° NNW visible
28 Jul 7.0 08:16:30 10° SW 08:17:37 11° WSW 08:18:43 10° WSW visible
28 Jul 6.4 16:12:32 10° ENE 16:16:12 20° ESE 16:19:55 10° SSE visible
28 Jul 4.1 17:49:51 10° N 17:54:54 54° W 18:00:00 10° SSW visible
29 Jul 4.3 06:00:13 10° SSE 06:05:16 50° E 06:10:14 10° N visible
29 Jul 6.4 07:40:11 10° SSW 07:44:00 21° WSW 07:47:48 10° WNW visible
29 Jul 4.2 17:15:39 10° NNE 17:20:47 74° ESE 17:26:00 10° S visible
29 Jul 5.7 18:58:02 10° WNW 19:00:26 13° W 19:02:51 10° WSW visible
30 Jul 5.3 07:05:21 10° S 07:10:12 41° WSW 07:15:00 10° NW visible
30 Jul 5.4 16:42:10 10° NE 16:46:51 36° ESE 16:51:34 10° S visible
30 Jul 4.9 18:21:36 10° NNW 18:25:59 28° W 18:30:25 10° SW visible
31 Jul 4.1 06:31:01 10° SSE 06:36:14 85° WSW 06:41:22 10° NNW visible
31 Jul 7.0 08:12:50 10° SW 08:14:31 12° WSW 08:16:11 10° WSW visible
31 Jul 6.5 16:09:35 10° ENE 16:13:05 19° ESE 16:16:36 10° SSE visible
31 Jul 4.0 17:46:38 10° N 17:51:43 58° WNW 17:56:52 10° SSW visible
